Weather Roundup
Issued by NWS

Home | Current Version | Previous Version | Graphics & Text | Print | Product List | Glossary Off
Versions: 1 2 3 4 5 6 7 8 9 10 11 12 13 14 15 16 17 18 19 20 21 22 23 24 25 26 27 28 29 30 31 32 33 34 35 36 37 38 39 40 41 42 43 44 45 46 47 48 49 50

894
NZUS93 KARX 051510
HRRWXR

CURRENT HOURLY OBSERVATIONS ACROSS
MUCH OF THE UPPER MISSISSIPPI VALLEY
NATIONAL WEATHER SERVICE LA CROSSE WI
1000 AM CDT THU MAY 05 2016


...SOUTHEAST MINNESOTA...


CITY           SKY/WX    TMP DP  RH WIND       PRES   REMARKS
ROCHESTER      CLOUDY    50  34  54 S3        30.11R
ROCHESTER/MAYO PTSUNNY   50  33  51 S3        30.10F
WINONA         SUNNY     54  34  47 CALM      30.09F
AUSTIN         MOSUNNY   54  34  47 S5        30.09S
ALBERT LEA     SUNNY     55  30  38 SE7       30.09S
DODGE CENTER   CLOUDY    54  34  47 S6        30.10R
PRESTON        CLOUDY    53  35  50 CALM      30.10S
OWATONNA       SUNNY     57  30  35 S8        30.08S
FARIBAULT      SUNNY     57  32  38 S7        30.08S
$$

...ELSEWHERE IN MINNESOTA...


CITY           SKY/WX    TMP DP  RH WIND       PRES   REMARKS
MINNEAPOLIS    MOSUNNY   57  30  35 SW8       30.07S
INTNL FALLS    SUNNY     63  35  35 SW15G22   29.86F
DULUTH         PTSUNNY   49  36  61 SW12      29.98F
RED WING       CLOUDY    50  39  66 CALM      30.07F
REDWOOD FALLS  SUNNY     63  34  33 S8        30.05F
MANKATO        SUNNY     59  27  29 SW10G16   30.08R
WORTHINGTON    SUNNY     62  35  36 SW8       30.08R
FAIRMONT       SUNNY     57  32  38 S9        30.08F
$$

...SOUTHWEST WISCONSIN...


CITY           SKY/WX    TMP DP  RH WIND       PRES   REMARKS
LA CROSSE      SUNNY     54  36  50 VRB3      30.09S
PRAIRIE DU CHI SUNNY     53  35  50 W6        30.08S
BOSCOBEL       SUNNY     54  35  48 VRB3      30.08S
LONE ROCK      SUNNY     52  37  56 CALM      30.08S
PLATTEVILLE    SUNNY     50  39  64 N6        30.07S
FORT MC COY    SUNNY     52  36  54 CALM      30.09R
CAMP DOUGLAS   MOSUNNY   52  41  66 NW5       30.07S
MAUSTON-NEW LI SUNNY     51  37  58 NW6       30.06F
VIROQUA        FAIR      51  35  55 N5        30.07S
WIS DELLS      SUNNY     50  33  52 NW5       30.06F
$$

...ELSEWHERE IN WISCONSIN...


CITY           SKY/WX    TMP DP  RH WIND       PRES   REMARKS
MILWAUKEE      MOSUNNY   48  37  65 NE15      30.03R
MADISON        SUNNY     50  35  56 N10       30.05S
GREEN BAY      SUNNY     50  36  58 NE7       30.05R
EAU CLAIRE     SUNNY     54  35  48 S5        30.07S
BLACK RVR FLS  FAIR      52  33  47 SW3       30.08S
MEDFORD        SUNNY     49  36  59 CALM      30.05S
WAUSAU         SUNNY     51  35  54 NW5       30.04S
WIS RAPIDS     SUNNY     51  34  52 VRB5      30.07F
MARSHFIELD     SUNNY     52  35  52 CALM      30.05S
RICE LAKE      MOSUNNY   57  30  36 SW3       30.07S
$$

...NORTHEAST IOWA...


CITY           SKY/WX    TMP DP  RH WIND       PRES   REMARKS
WATERLOO       CLOUDY    53  34  48 N5        30.10R
DUBUQUE        SUNNY     51  37  58 N8        30.07R
DECORAH        SUNNY     52  36  54 CALM      30.08F
MASON CITY       N/A     56  33  42 VRB3      30.12R
CHARLES CITY   CLOUDY    52  34  50 CALM      30.11R
OELWEIN        MOSUNNY   54  36  50 N7        30.10R
$$

...ELSEWHERE IN IOWA...


CITY           SKY/WX    TMP DP  RH WIND       PRES   REMARKS
DES MOINES     MOSUNNY   58  32  37 NE3       30.10S
IOWA CITY      SUNNY     54  38  54 N7        30.10R
FORT DODGE     MOSUNNY   57  32  38 S6        30.11S
MARSHALLTOWN   CLOUDY    54  34  46 VRB5      30.09S
CEDAR RAPIDS   SUNNY     54  38  54 N8        30.08R
$$

...NORTHERN ILLINOIS...


CITY           SKY/WX    TMP DP  RH WIND       PRES   REMARKS
CHICAGO-OHARE  MOSUNNY   52  39  61 N13       30.00R
CHICAGO-MIDWAY MOSUNNY   52  39  61 NE15      30.00R
MOLINE         SUNNY     53  36  52 NE9       30.06
ROCKFORD       SUNNY     53  38  56 N13       30.06R
PEORIA         SUNNY     52  39  61 N8        30.04R
$$

NOTE: "FAIR" INDICATES FEW OR NO CLOUDS BELOW 12,000 FEET WITH NO
SIGNIFICANT WEATHER AND/OR OBSTRUCTIONS TO VISIBILITY. WIND
SPEEDS ARE IN MILES-PER-HOUR.




USA.gov is the U.S. government's official web portal to all federal, state and local government web resources and services.